Location: ???? ???? ?????
(31.2680°N, 31.7283°E)
Time: 04:28:10
(UTC+00:00)

Cosmos 1825 Rocket - Pass Details

Date: 13 July 2020
Orbit: 603 x 631 km, 82.5° (Epoch: 11 August)

Event Time Altitude Azimuth Distance (km) Brightness Sun altitude
Rises 17:27:10 0° 171° (S) 2,894 6.6 -6.1°
Reaches altitude 10° 17:29:27 10° 165° (SSE) 1,994 5.8 -6.5°
Maximum altitude 17:33:40 46° 93° (E) 844 3.9 -7.3°
Drops below altitude 10° 17:37:57 10° 20° (NNE) 2,014 6.4 -8.1°
Sets 17:40:15 0° 14° (NNE) 2,926 7.3 -8.5°
